Theta_e
290 288 292 299 300 302 301 303 306 305 307 308 311 312 312 315 319 320 320 320 319 318
288 287 289 296 299 299 300 303 301 302 301 302 303 306 309 309 312 317 318 320 320 318
287 289 288 295 296 297 299 300 300 300 297 297 298 299 303 305 308 313 317 319 318 318
286 288 290 292 294 296 296 296 296 297 297 298 298 298 298 302 305 309 313 315 317 316
286 287 288 290 292 294 294 295 295 295 295 295 296 297 297 298 300 302 310 312 314 314
284 285 287 288 290 292 293 292 292 292 292 292 292 293 293 293 294 296 301 309 308 301
283 285 286 287 288 289 290 290 289 289 289 289 290 290 290 290 289 290 291 294 299 298
283 284 286 286 286 287 287 287 287 286 287 287 288 289 287 287 287 287 287 288 291 291
282 283 283 284 285 285 285 285 285 284 285 285 286 288 289 287 286 286 285 285 286 287
281 282 282 283 283 283 283 284 284 284 284 283 284 287 286 285 284 284 283 284 284 284
280 281 282 282 282 282 283 283 283 283 283 283 284 287 286 284 283 282 282 283 283 283
281 281 281 281 281 282 282 283 283 283 283 283 283 286 286 284 282 282 282 282 282 282
282 281 280 281 281 282 282 282 283 283 284 283 283 286 285 283 282 281 281 282 283 283
281 281 281 281 281 281 280 280 280 280 280 283 284 284 285 284 282 281 280 280 281 283
Wind_Speed
13 9 13 7 3 4 6 5 1 4 4 4 3 2 3 6 8 11 12 14 14 11
11 11 14 11 4 2 4 2 4 4 4 3 5 4 5 5 6 8 12 18 16 13
10 10 12 10 4 4 3 4 5 4 4 5 5 5 5 6 7 8 8 13 14 15
11 9 9 8 5 3 5 6 5 4 3 5 8 7 6 7 9 11 10 9 14 15
9 9 8 6 6 4 3 3 4 4 3 3 5 5 5 6 5 8 13 11 13 14
9 8 8 7 6 5 3 2 3 4 4 4 4 5 3 3 4 6 4 11 12 10
9 8 6 6 6 5 5 4 5 6 5 5 4 4 5 5 4 4 5 5 7 10
8 7 5 5 6 6 7 6 6 6 6 7 7 5 4 7 6 8 10 6 5 10
7 6 6 6 6 7 7 7 9 10 9 9 7 14 16 10 6 9 9 6 5 15
8 8 7 7 9 9 9 10 10 10 11 11 12 21 23 20 9 13 14 10 8 6
8 8 8 9 10 9 9 10 9 9 10 11 13 24 26 23 15 17 15 8 5 12
10 10 10 10 10 8 9 10 10 10 11 12 13 22 24 18 17 19 12 10 11 14
10 11 11 11 10 9 10 10 9 11 11 14 13 21 21 15 11 14 6 10 17 14
10 10 9 10 10 9 10 10 11 11 11 12 12 14 18 16 9 9 6 10 6 10
Wind_Direction
293 289 294 308 287 256 244 244 190 187 188 229 247 222 252 273 241 230 223 205 198 199
301 298 292 300 303 306 312 35 65 38 17 321 293 278 265 259 268 242 229 218 207 204
297 292 288 285 272 8 338 0 29 18 2 318 295 280 270 259 251 254 237 220 207 201
305 297 282 294 336 315 1 10 352 344 331 305 292 285 283 269 266 266 251 222 201 202
307 309 310 315 336 307 345 5 336 328 318 316 300 291 290 293 264 263 241 218 209 195
320 323 324 326 320 346 346 353 11 353 359 332 321 308 335 340 318 300 277 212 191 167
325 327 329 341 358 16 17 19 26 14 9 358 339 356 13 33 11 16 84 338 164 144
329 336 352 15 26 38 42 37 47 33 28 25 22 27 41 57 31 32 45 40 102 88
350 2 18 23 36 55 58 53 58 49 45 45 44 57 66 69 60 55 57 4 54 79
9 24 30 43 53 53 59 63 61 60 59 56 57 66 69 66 57 63 44 16 353 103
15 32 44 54 56 56 58 63 64 63 64 69 64 68 70 71 63 55 46 7 33 54
29 36 40 49 51 54 64 62 61 58 62 66 63 64 68 67 66 62 47 41 46 55
33 43 45 44 41 43 52 56 57 59 57 63 65 65 69 67 72 81 46 42 52 65
26 39 41 49 43 45 48 50 48 49 38 49 59 65 70 71 80 84 74 61 57 58